TimeCDT,TemperatureF,Dew PointF,Humidity,Sea Level PressureIn,VisibilityMPH,Wind Direction,Wind SpeedMPH,Gust SpeedMPH,PrecipitationIn,Events,Conditions,WindDirDegrees,DateUTC
12:52 AM,60.1,53.1,78,29.98,10.0,North,11.5,-,N/A,,Clear,10,2012-10-10 05:52:00
1:52 AM,59.0,50.0,72,30.01,10.0,NNE,15.0,-,N/A,,Clear,20,2012-10-10 06:52:00
2:52 AM,57.9,50.0,75,30.02,10.0,NNE,15.0,-,N/A,,Clear,20,2012-10-10 07:52:00
3:52 AM,-9999,-9999,N/A,30.06,-9999.0,North,-9999.0,-,N/A,,Unknown,0,2012-10-10 08:52:00
4:52 AM,-9999,-9999,N/A,30.08,-9999.0,North,-9999.0,-,N/A,,Unknown,0,2012-10-10 09:52:00
5:52 AM,-9999,-9999,N/A,30.11,-9999.0,North,-9999.0,-,N/A,,Unknown,0,2012-10-10 10:52:00
6:52 AM,-9999,-9999,N/A,30.13,-9999.0,North,-9999.0,-,N/A,,Unknown,0,2012-10-10 11:52:00
7:52 AM,-9999,-9999,N/A,30.15,-9999.0,North,-9999.0,-,N/A,,Unknown,0,2012-10-10 12:52:00
8:03 AM,59.0,48.2,67,30.14,10.0,NE,16.1,-,N/A,,Overcast,40,2012-10-10 13:03:00
8:52 AM,59.0,48.2,67,30.13,10.0,NNE,15.0,-,N/A,,Overcast,30,2012-10-10 13:52:00
9:52 AM,59.0,48.2,67,30.18,10.0,NE,10.4,-,N/A,,Overcast,40,2012-10-10 14:52:00
10:52 AM,59.0,48.2,67,30.15,10.0,NE,10.4,-,N/A,,Overcast,40,2012-10-10 15:52:00
11:52 AM,60.8,48.2,63,30.16,10.0,NE,15.0,-,N/A,,Overcast,50,2012-10-10 16:52:00
12:52 PM,62.1,50.0,65,30.18,10.0,ENE,13.8,-,N/A,,Overcast,60,2012-10-10 17:52:00
1:52 PM,62.1,50.0,65,30.17,10.0,ENE,8.1,-,N/A,,Overcast,70,2012-10-10 18:52:00
2:52 PM,64.0,51.1,63,30.14,10.0,East,9.2,-,N/A,,Overcast,80,2012-10-10 19:52:00
3:52 PM,64.0,52.0,65,30.15,10.0,ENE,10.4,-,N/A,,Overcast,70,2012-10-10 20:52:00
4:52 PM,63.0,54.0,72,30.13,10.0,East,10.4,-,N/A,,Overcast,100,2012-10-10 21:52:00
5:52 PM,63.0,53.1,70,30.12,10.0,East,5.8,-,N/A,,Overcast,90,2012-10-10 22:52:00
6:47 PM,62.6,53.6,72,30.12,-9999.0,North,-9999.0,-,N/A,,Unknown,0,2012-10-10 23:47:00
6:52 PM,-9999,-9999,N/A,30.12,10.0,East,6.9,-,N/A,,Overcast,90,2012-10-10 23:52:00
7:03 PM,-9999,-9999,N/A,30.12,-9999.0,North,-9999.0,-,N/A,,Unknown,0,2012-10-11 00:03:00
7:30 PM,62.6,53.6,72,30.11,10.0,ENE,4.6,-,N/A,,Scattered Clouds,60,2012-10-11 00:30:00
7:52 PM,62.6,51.8,68,30.12,10.0,East,3.5,-,N/A,,Scattered Clouds,100,2012-10-11 00:52:00
8:52 PM,60.8,50.0,68,30.10,10.0,East,3.5,-,N/A,,Scattered Clouds,100,2012-10-11 01:52:00
9:52 PM,-9999,-9999,N/A,30.13,-9999.0,North,-9999.0,-,N/A,,Unknown,0,2012-10-11 02:52:00
10:52 PM,-9999,-9999,N/A,30.12,-9999.0,North,-9999.0,-,N/A,,Unknown,0,2012-10-11 03:52:00
11:52 PM,-9999,-9999,N/A,30.12,-9999.0,North,-9999.0,-,N/A,,Unknown,0,2012-10-11 04:52:00